Time,TemperatureF,DewpointF,PressureIn,WindDirection,WindDirectionDegrees,WindSpeedMPH,WindSpeedGustMPH,Humidity,HourlyPrecipIn,Conditions,Clouds,dailyrainin,SoftwareType,DateUTC
2013-01-06 00:00:00,31.0,28.1,30.18,West,272,0.0,0.0,89,0.00,,---,0.00,VWS V14.00,2013-01-06 05:00:00,
2013-01-06 00:03:00,31.0,28.1,30.18,West,272,0.0,0.0,89,0.00,,---,0.00,VWS V14.00,2013-01-06 05:03:00,
2013-01-06 00:08:00,31.1,28.0,30.18,West,272,0.0,0.0,88,0.00,,---,0.00,VWS V14.00,2013-01-06 05:08:00,
2013-01-06 00:13:00,31.1,28.0,30.18,West,272,0.0,0.0,88,0.00,,---,0.00,VWS V14.00,2013-01-06 05:13:00,
2013-01-06 00:18:00,31.2,28.1,30.18,West,272,0.0,2.0,88,0.00,,---,0.00,VWS V14.00,2013-01-06 05:18:00,
2013-01-06 00:23:00,31.3,28.2,30.18,West,272,0.0,0.0,88,0.00,,---,0.00,VWS V14.00,2013-01-06 05:23:00,
2013-01-06 00:28:00,31.3,27.9,30.18,West,272,0.0,2.0,87,0.00,,---,0.00,VWS V14.00,2013-01-06 05:28:00,
2013-01-06 00:33:00,31.4,28.0,30.18,West,272,0.0,0.0,87,0.00,,---,0.00,VWS V14.00,2013-01-06 05:33:00,
2013-01-06 00:38:00,31.4,28.0,30.18,West,272,0.0,0.0,87,0.00,,---,0.00,VWS V14.00,2013-01-06 05:38:00,
2013-01-06 00:43:00,31.5,27.8,30.17,West,272,0.0,0.0,86,0.00,,---,0.00,VWS V14.00,2013-01-06 05:43:00,
2013-01-06 00:48:00,31.7,29.6,30.17,West,272,1.0,1.0,92,0.00,,---,0.00,VWS V14.00,2013-01-06 05:48:00,
2013-01-06 00:53:00,31.7,28.0,30.17,West,272,0.0,0.0,86,0.00,,---,0.00,VWS V14.00,2013-01-06 05:53:00,
2013-01-06 00:58:00,31.8,27.8,30.17,SW,219,0.0,1.0,85,0.00,,---,0.00,VWS V14.00,2013-01-06 05:58:00,
2013-01-06 01:03:00,31.7,27.7,30.17,SW,219,0.0,0.0,85,0.00,,---,0.00,VWS V14.00,2013-01-06 06:03:00,
2013-01-06 01:08:00,31.5,27.5,30.17,SW,219,0.0,0.0,85,0.00,,---,0.00,VWS V14.00,2013-01-06 06:08:00,
2013-01-06 01:13:00,31.6,27.9,30.17,SW,219,0.0,0.0,86,0.00,,---,0.00,VWS V14.00,2013-01-06 06:13:00,
2013-01-06 01:18:00,31.6,27.9,30.16,SW,219,0.0,0.0,86,0.00,,---,0.00,VWS V14.00,2013-01-06 06:18:00,
2013-01-06 01:23:00,31.5,27.8,30.16,SW,219,0.0,0.0,86,0.00,,---,0.00,VWS V14.00,2013-01-06 06:23:00,
2013-01-06 01:28:00,31.5,27.8,30.16,SW,219,0.0,1.0,86,0.00,,---,0.00,VWS V14.00,2013-01-06 06:28:00,
2013-01-06 01:33:00,31.5,27.8,30.16,SW,219,0.0,0.0,86,0.00,,---,0.00,VWS V14.00,2013-01-06 06:33:00,
2013-01-06 01:38:00,31.5,27.8,30.16,SW,219,0.0,0.0,86,0.00,,---,0.00,VWS V14.00,2013-01-06 06:38:00,
2013-01-06 01:43:00,31.4,27.7,30.16,SW,219,0.0,0.0,86,0.00,,---,0.00,VWS V14.00,2013-01-06 06:43:00,
2013-01-06 01:48:00,31.5,27.8,30.16,SW,219,0.0,0.0,86,0.00,,---,0.00,VWS V14.00,2013-01-06 06:48:00,
2013-01-06 01:53:00,31.5,27.8,30.16,SW,219,0.0,0.0,86,0.00,,---,0.00,VWS V14.00,2013-01-06 06:53:00,
2013-01-06 01:58:00,31.4,28.0,30.16,SW,219,0.0,0.0,87,0.00,,---,0.00,VWS V14.00,2013-01-06 06:58:00,
2013-01-06 02:03:00,31.4,28.0,30.16,SW,219,0.0,0.0,87,0.00,,---,0.00,VWS V14.00,2013-01-06 07:03:00,
2013-01-06 02:08:00,31.4,28.0,30.16,SW,219,0.0,0.0,87,0.00,,---,0.00,VWS V14.00,2013-01-06 07:08:00,
2013-01-06 02:13:00,31.5,27.8,30.16,SW,219,0.0,0.0,86,0.00,,---,0.00,VWS V14.00,2013-01-06 07:13:00,
2013-01-06 02:18:00,31.6,27.9,30.15,SW,219,0.0,0.0,86,0.00,,---,0.00,VWS V14.00,2013-01-06 07:18:00,
2013-01-06 02:23:00,31.7,28.0,30.15,SW,219,0.0,1.0,86,0.00,,---,0.00,VWS V14.00,2013-01-06 07:23:00,
2013-01-06 02:28:00,31.8,28.1,30.16,SW,219,0.0,0.0,86,0.00,,---,0.00,VWS V14.00,2013-01-06 07:28:00,
2013-01-06 02:33:00,31.9,27.9,30.15,SW,219,0.0,1.0,85,0.00,,---,0.00,VWS V14.00,2013-01-06 07:33:00,
2013-01-06 02:38:00,31.9,27.9,30.15,SW,219,0.0,1.0,85,0.00,,---,0.00,VWS V14.00,2013-01-06 07:38:00,
2013-01-06 02:43:00,31.8,27.8,30.16,SW,219,0.0,0.0,85,0.00,,---,0.00,VWS V14.00,2013-01-06 07:43:00,
2013-01-06 02:48:00,31.9,27.9,30.15,SW,219,0.0,0.0,85,0.00,,---,0.00,VWS V14.00,2013-01-06 07:48:00,
2013-01-06 02:53:00,31.9,27.9,30.15,SW,219,0.0,0.0,85,0.00,,---,0.00,VWS V14.00,2013-01-06 07:53:00,
2013-01-06 02:58:00,31.9,27.9,30.15,SW,219,0.0,0.0,85,0.00,,---,0.00,VWS V14.00,2013-01-06 07:58:00,
2013-01-06 03:03:00,31.9,27.9,30.15,SW,219,0.0,0.0,85,0.00,,---,0.00,VWS V14.00,2013-01-06 08:03:00,
2013-01-06 03:08:00,31.9,27.9,30.15,SW,219,0.0,0.0,85,0.00,,---,0.00,VWS V14.00,2013-01-06 08:08:00,
2013-01-06 03:13:00,31.8,27.8,30.15,SW,219,0.0,0.0,85,0.00,,---,0.00,VWS V14.00,2013-01-06 08:13:00,
2013-01-06 03:18:00,31.6,27.9,30.15,SW,219,0.0,0.0,86,0.00,,---,0.00,VWS V14.00,2013-01-06 08:18:00,
2013-01-06 03:23:00,31.5,28.1,30.15,SW,219,0.0,0.0,87,0.00,,---,0.00,VWS V14.00,2013-01-06 08:23:00,
2013-01-06 03:28:00,31.4,28.0,30.15,SW,219,0.0,0.0,87,0.00,,---,0.00,VWS V14.00,2013-01-06 08:28:00,
2013-01-06 03:33:00,31.3,27.9,30.14,SW,219,0.0,0.0,87,0.00,,---,0.00,VWS V14.00,2013-01-06 08:33:00,
2013-01-06 03:38:00,31.3,28.2,30.14,SW,219,0.0,0.0,88,0.00,,---,0.00,VWS V14.00,2013-01-06 08:38:00,
2013-01-06 03:43:00,31.2,28.1,30.14,SW,219,0.0,0.0,88,0.00,,---,0.00,VWS V14.00,2013-01-06 08:43:00,
2013-01-06 03:48:00,31.2,28.1,30.14,SW,219,0.0,0.0,88,0.00,,---,0.00,VWS V14.00,2013-01-06 08:48:00,
2013-01-06 03:53:00,31.2,28.1,30.13,SW,219,0.0,0.0,88,0.00,,---,0.00,VWS V14.00,2013-01-06 08:53:00,
2013-01-06 03:58:00,31.1,28.2,30.13,SW,219,0.0,0.0,89,0.00,,---,0.00,VWS V14.00,2013-01-06 08:58:00,
2013-01-06 04:03:00,31.1,28.2,30.13,SW,219,0.0,0.0,89,0.00,,---,0.00,VWS V14.00,2013-01-06 09:03:00,
2013-01-06 04:08:00,31.1,28.0,30.13,SW,219,0.0,0.0,88,0.00,,---,0.00,VWS V14.00,2013-01-06 09:08:00,
2013-01-06 04:13:00,31.1,28.2,30.12,SW,219,0.0,0.0,89,0.00,,---,0.00,VWS V14.00,2013-01-06 09:13:00,
2013-01-06 04:18:00,31.0,28.1,30.13,SW,219,0.0,0.0,89,0.00,,---,0.00,VWS V14.00,2013-01-06 09:18:00,
2013-01-06 04:23:00,31.0,28.1,30.12,SW,219,0.0,0.0,89,0.00,,---,0.00,VWS V14.00,2013-01-06 09:23:00,
2013-01-06 04:28:00,31.0,28.1,30.12,SW,219,0.0,1.0,89,0.00,,---,0.00,VWS V14.00,2013-01-06 09:28:00,
2013-01-06 04:33:00,31.2,28.3,30.12,SW,219,0.0,0.0,89,0.00,,---,0.00,VWS V14.00,2013-01-06 09:33:00,
2013-01-06 04:38:00,31.2,28.3,30.12,SW,219,0.0,0.0,89,0.00,,---,0.00,VWS V14.00,2013-01-06 09:38:00,
2013-01-06 04:43:00,31.1,28.0,30.11,SW,219,0.0,0.0,88,0.00,,---,0.00,VWS V14.00,2013-01-06 09:43:00,
2013-01-06 04:48:00,31.0,27.9,30.11,SW,219,0.0,0.0,88,0.00,,---,0.00,VWS V14.00,2013-01-06 09:48:00,
2013-01-06 04:53:00,30.6,27.5,30.11,SW,219,0.0,0.0,88,0.00,,---,0.00,VWS V14.00,2013-01-06 09:53:00,
2013-01-06 04:58:00,30.3,27.2,30.11,SW,219,0.0,0.0,88,0.00,,---,0.00,VWS V14.00,2013-01-06 09:58:00,
2013-01-06 05:03:00,30.1,27.0,30.11,SW,219,0.0,0.0,88,0.00,,---,0.00,VWS V14.00,2013-01-06 10:03:00,
2013-01-06 05:08:00,29.8,26.7,30.11,SW,219,0.0,0.0,88,0.00,,---,0.00,VWS V14.00,2013-01-06 10:08:00,
2013-01-06 05:13:00,29.4,26.3,30.10,SW,219,0.0,0.0,88,0.00,,---,0.00,VWS V14.00,2013-01-06 10:13:00,
2013-01-06 05:18:00,28.9,25.8,30.11,SW,219,0.0,0.0,88,0.00,,---,0.00,VWS V14.00,2013-01-06 10:18:00,
2013-01-06 05:24:00,28.5,25.7,30.11,SW,219,0.0,0.0,89,0.00,,---,0.00,VWS V14.00,2013-01-06 10:24:00,
2013-01-06 05:29:00,28.1,25.3,30.11,SW,219,0.0,0.0,89,0.00,,---,0.00,VWS V14.00,2013-01-06 10:29:00,
2013-01-06 05:34:00,27.8,25.0,30.11,SW,219,0.0,0.0,89,0.00,,---,0.00,VWS V14.00,2013-01-06 10:34:00,
2013-01-06 05:39:00,27.6,25.1,30.11,SW,219,0.0,0.0,90,0.00,,---,0.00,VWS V14.00,2013-01-06 10:39:00,
2013-01-06 05:44:00,27.3,24.8,30.11,SW,219,0.0,0.0,90,0.00,,---,0.00,VWS V14.00,2013-01-06 10:44:00,
2013-01-06 05:49:00,27.1,24.6,30.11,SW,219,0.0,0.0,90,0.00,,---,0.00,VWS V14.00,2013-01-06 10:49:00,
2013-01-06 05:54:00,26.8,24.3,30.11,SW,219,0.0,0.0,90,0.00,,---,0.00,VWS V14.00,2013-01-06 10:54:00,
2013-01-06 05:59:00,26.4,23.9,30.11,SW,219,0.0,0.0,90,0.00,,---,0.00,VWS V14.00,2013-01-06 10:59:00,
2013-01-06 06:04:00,26.2,23.7,30.11,SW,219,0.0,0.0,90,0.00,,---,0.00,VWS V14.00,2013-01-06 11:04:00,
2013-01-06 06:09:00,26.0,23.7,30.10,SW,219,0.0,0.0,91,0.00,,---,0.00,VWS V14.00,2013-01-06 11:09:00,
2013-01-06 06:14:00,25.8,23.5,30.11,SW,219,0.0,1.0,91,0.00,,---,0.00,VWS V14.00,2013-01-06 11:14:00,
2013-01-06 06:19:00,25.7,23.4,30.11,SW,219,0.0,0.0,91,0.00,,---,0.00,VWS V14.00,2013-01-06 11:19:00,
2013-01-06 06:24:00,25.7,23.4,30.11,SW,219,0.0,0.0,91,0.00,,---,0.00,VWS V14.00,2013-01-06 11:24:00,
2013-01-06 06:29:00,26.0,24.0,30.11,SW,219,0.0,0.0,92,0.00,,---,0.00,VWS V14.00,2013-01-06 11:29:00,
2013-01-06 06:34:00,26.2,24.2,30.11,SW,219,0.0,0.0,92,0.00,,---,0.00,VWS V14.00,2013-01-06 11:34:00,
2013-01-06 06:39:00,26.3,24.3,30.11,SW,219,0.0,0.0,92,0.00,,---,0.00,VWS V14.00,2013-01-06 11:39:00,
2013-01-06 06:44:00,26.5,24.5,30.11,SW,219,0.0,0.0,92,0.00,,---,0.00,VWS V14.00,2013-01-06 11:44:00,
2013-01-06 06:49:00,26.7,24.7,30.11,SW,219,0.0,0.0,92,0.00,,---,0.00,VWS V14.00,2013-01-06 11:49:00,
2013-01-06 06:54:00,26.9,24.9,30.11,SW,219,0.0,0.0,92,0.00,,---,0.00,VWS V14.00,2013-01-06 11:54:00,
2013-01-06 06:59:00,27.1,25.1,30.11,SW,219,0.0,0.0,92,0.00,,---,0.00,VWS V14.00,2013-01-06 11:59:00,
2013-01-06 07:04:00,27.2,25.2,30.11,SW,219,0.0,0.0,92,0.00,,---,0.00,VWS V14.00,2013-01-06 12:04:00,
2013-01-06 07:09:00,27.3,25.3,30.11,SW,219,0.0,0.0,92,0.00,,---,0.00,VWS V14.00,2013-01-06 12:09:00,
2013-01-06 07:14:00,27.5,25.5,30.11,SW,219,0.0,0.0,92,0.00,,---,0.00,VWS V14.00,2013-01-06 12:14:00,
2013-01-06 07:19:00,27.6,25.6,30.10,SW,219,0.0,1.0,92,0.00,,---,0.00,VWS V14.00,2013-01-06 12:19:00,
2013-01-06 07:24:00,27.8,25.8,30.10,SW,219,0.0,0.0,92,0.00,,---,0.00,VWS V14.00,2013-01-06 12:24:00,
2013-01-06 07:29:00,27.9,25.9,30.10,SW,219,0.0,0.0,92,0.00,,---,0.00,VWS V14.00,2013-01-06 12:29:00,
2013-01-06 07:34:00,28.1,26.1,30.10,SW,219,0.0,0.0,92,0.00,,---,0.00,VWS V14.00,2013-01-06 12:34:00,
2013-01-06 07:39:00,28.2,26.2,30.10,SW,222,0.0,1.0,92,0.00,,---,0.00,VWS V14.00,2013-01-06 12:39:00,
2013-01-06 07:44:00,28.5,26.5,30.10,SW,222,0.0,0.0,92,0.00,,---,0.00,VWS V14.00,2013-01-06 12:44:00,
2013-01-06 07:49:00,28.5,26.5,30.10,SW,222,0.0,0.0,92,0.00,,---,0.00,VWS V14.00,2013-01-06 12:49:00,
2013-01-06 07:54:00,28.7,26.7,30.10,SW,222,0.0,0.0,92,0.00,,---,0.00,VWS V14.00,2013-01-06 12:54:00,
2013-01-06 07:59:00,28.9,26.9,30.11,SW,222,0.0,1.0,92,0.00,,---,0.00,VWS V14.00,2013-01-06 12:59:00,
2013-01-06 08:04:00,29.2,27.2,30.10,SW,222,0.0,0.0,92,0.00,,---,0.00,VWS V14.00,2013-01-06 13:04:00,
2013-01-06 08:09:00,29.6,27.8,30.10,SSW,205,0.0,2.0,93,0.00,,---,0.00,VWS V14.00,2013-01-06 13:09:00,
2013-01-06 08:14:00,30.2,28.2,30.10,SSW,193,0.0,3.0,92,0.00,,---,0.00,VWS V14.00,2013-01-06 13:14:00,
2013-01-06 08:19:00,31.0,29.0,30.10,SSW,193,0.0,1.0,92,0.00,,---,0.00,VWS V14.00,2013-01-06 13:19:00,
2013-01-06 08:24:00,31.8,29.5,30.10,South,191,1.0,2.0,91,0.00,,---,0.00,VWS V14.00,2013-01-06 13:24:00,
2013-01-06 08:29:00,32.7,29.8,30.11,South,179,0.0,3.0,89,0.00,,---,0.00,VWS V14.00,2013-01-06 13:29:00,
2013-01-06 08:34:00,33.3,30.1,30.10,South,172,1.0,3.0,88,0.00,,---,0.00,VWS V14.00,2013-01-06 13:34:00,
2013-01-06 08:39:00,33.7,30.0,30.10,SW,214,0.0,5.0,86,0.00,,---,0.00,VWS V14.00,2013-01-06 13:39:00,
2013-01-06 08:44:00,34.1,30.1,30.10,SSW,192,0.0,2.0,85,0.00,,---,0.00,VWS V14.00,2013-01-06 13:44:00,
2013-01-06 08:49:00,34.3,30.0,30.10,SSE,164,1.0,5.0,84,0.00,,---,0.00,VWS V14.00,2013-01-06 13:49:00,
2013-01-06 08:54:00,34.5,29.9,30.10,WSW,244,0.0,2.0,83,0.00,,---,0.00,VWS V14.00,2013-01-06 13:54:00,
2013-01-06 08:59:00,34.7,29.8,30.10,SSE,166,0.0,4.0,82,0.00,,---,0.00,VWS V14.00,2013-01-06 13:59:00,
2013-01-06 09:04:00,34.8,29.6,30.10,SSE,167,0.0,3.0,81,0.00,,---,0.00,VWS V14.00,2013-01-06 14:04:00,
2013-01-06 09:09:00,34.9,29.7,30.10,South,173,0.0,2.0,81,0.00,,---,0.00,VWS V14.00,2013-01-06 14:09:00,
2013-01-06 09:14:00,35.0,29.8,30.10,South,186,3.0,5.0,81,0.00,,---,0.00,VWS V14.00,2013-01-06 14:14:00,
2013-01-06 09:19:00,35.2,29.7,30.10,SSE,159,1.0,3.0,80,0.00,,---,0.00,VWS V14.00,2013-01-06 14:19:00,
2013-01-06 09:24:00,35.3,29.5,30.10,South,180,1.0,7.0,79,0.00,,---,0.00,VWS V14.00,2013-01-06 14:24:00,
2013-01-06 09:29:00,35.5,29.6,30.11,SSW,201,0.0,3.0,79,0.00,,---,0.00,VWS V14.00,2013-01-06 14:29:00,
2013-01-06 09:34:00,35.6,29.7,30.11,SW,228,2.0,4.0,79,0.00,,---,0.00,VWS V14.00,2013-01-06 14:34:00,
2013-01-06 09:39:00,35.8,29.6,30.11,South,188,0.0,5.0,78,0.00,,---,0.00,VWS V14.00,2013-01-06 14:39:00,
2013-01-06 09:44:00,35.9,29.7,30.11,South,182,4.0,4.0,78,0.00,,---,0.00,VWS V14.00,2013-01-06 14:44:00,
2013-01-06 09:49:00,36.0,29.8,30.10,South,190,1.0,4.0,78,0.00,,---,0.00,VWS V14.00,2013-01-06 14:49:00,
2013-01-06 09:54:00,36.2,30.0,30.10,SSE,166,4.0,6.0,78,0.00,,---,0.00,VWS V14.00,2013-01-06 14:54:00,
2013-01-06 09:59:00,36.3,30.1,30.10,SSW,196,1.0,6.0,78,0.00,,---,0.00,VWS V14.00,2013-01-06 14:59:00,
2013-01-06 10:04:00,36.4,29.9,30.10,South,181,0.0,2.0,77,0.00,,---,0.00,VWS V14.00,2013-01-06 15:04:00,
2013-01-06 10:09:00,36.6,30.1,30.10,South,175,2.0,4.0,77,0.00,,---,0.00,VWS V14.00,2013-01-06 15:09:00,
2013-01-06 10:14:00,36.7,30.2,30.10,SSW,205,1.0,5.0,77,0.00,,---,0.00,VWS V14.00,2013-01-06 15:14:00,
2013-01-06 10:19:00,36.8,30.3,30.10,South,188,0.0,3.0,77,0.00,,---,0.00,VWS V14.00,2013-01-06 15:19:00,
2013-01-06 10:24:00,37.0,30.1,30.10,SW,221,0.0,4.0,76,0.00,,---,0.00,VWS V14.00,2013-01-06 15:24:00,
2013-01-06 10:29:00,37.3,30.4,30.10,SE,144,1.0,5.0,76,0.00,,---,0.00,VWS V14.00,2013-01-06 15:29:00,
2013-01-06 10:34:00,37.6,30.4,30.09,NW,320,1.0,5.0,75,0.00,,---,0.00,VWS V14.00,2013-01-06 15:34:00,
2013-01-06 10:39:00,37.9,30.7,30.10,West,276,3.0,6.0,75,0.00,,---,0.00,VWS V14.00,2013-01-06 15:39:00,
2013-01-06 10:44:00,38.2,31.0,30.09,South,173,3.0,4.0,75,0.00,,---,0.00,VWS V14.00,2013-01-06 15:44:00,
2013-01-06 10:49:00,38.4,30.9,30.09,SSW,210,0.0,5.0,74,0.00,,---,0.00,VWS V14.00,2013-01-06 15:49:00,
2013-01-06 10:54:00,38.7,30.8,30.09,South,182,2.0,7.0,73,0.00,,---,0.00,VWS V14.00,2013-01-06 15:54:00,
2013-01-06 10:59:00,38.6,30.7,30.09,SSW,196,2.0,9.0,73,0.00,,---,0.00,VWS V14.00,2013-01-06 15:59:00,
2013-01-06 11:04:00,38.6,30.7,30.09,SSE,164,4.0,9.0,73,0.00,,---,0.00,VWS V14.00,2013-01-06 16:04:00,
2013-01-06 11:09:00,38.7,30.8,30.09,South,185,3.0,6.0,73,0.00,,---,0.00,VWS V14.00,2013-01-06 16:09:00,
2013-01-06 11:14:00,38.7,30.5,30.08,NNE,19,0.0,7.0,72,0.00,,---,0.00,VWS V14.00,2013-01-06 16:14:00,
2013-01-06 11:19:00,38.8,30.9,30.08,WSW,250,3.0,3.0,73,0.00,,---,0.00,VWS V14.00,2013-01-06 16:19:00,
2013-01-06 11:24:00,38.9,30.7,30.08,SSE,153,4.0,5.0,72,0.00,,---,0.00,VWS V14.00,2013-01-06 16:24:00,
2013-01-06 11:29:00,38.9,30.7,30.08,NW,310,0.0,9.0,72,0.00,,---,0.00,VWS V14.00,2013-01-06 16:29:00,
2013-01-06 11:34:00,38.9,30.7,30.07,South,186,2.0,8.0,72,0.00,,---,0.00,VWS V14.00,2013-01-06 16:34:00,
2013-01-06 11:39:00,38.8,30.6,30.07,South,181,1.0,6.0,72,0.00,,---,0.00,VWS V14.00,2013-01-06 16:39:00,
2013-01-06 11:44:00,38.7,30.8,30.07,South,185,3.0,5.0,73,0.00,,---,0.00,VWS V14.00,2013-01-06 16:44:00,
2013-01-06 11:49:00,38.7,30.5,30.07,East,98,2.0,6.0,72,0.00,,---,0.00,VWS V14.00,2013-01-06 16:49:00,
2013-01-06 11:54:00,38.8,30.6,30.06,SSW,202,5.0,12.0,72,0.00,,---,0.00,VWS V14.00,2013-01-06 16:54:00,
2013-01-06 11:59:00,38.8,30.6,30.06,SSW,207,1.0,6.0,72,0.00,,---,0.00,VWS V14.00,2013-01-06 16:59:00,
2013-01-06 12:04:00,38.9,30.7,30.05,SW,228,0.0,9.0,72,0.00,,---,0.00,VWS V14.00,2013-01-06 17:04:00,
2013-01-06 12:09:00,38.9,30.7,30.05,SSW,196,2.0,6.0,72,0.00,,---,0.00,VWS V14.00,2013-01-06 17:09:00,
2013-01-06 12:14:00,39.0,30.8,30.04,SSW,202,0.0,7.0,72,0.00,,---,0.00,VWS V14.00,2013-01-06 17:14:00,
2013-01-06 12:19:00,39.3,30.7,30.04,South,174,5.0,7.0,71,0.00,,---,0.00,VWS V14.00,2013-01-06 17:19:00,
2013-01-06 12:24:00,39.4,30.4,30.04,South,171,4.0,13.0,70,0.00,,---,0.00,VWS V14.00,2013-01-06 17:24:00,
2013-01-06 12:29:00,39.4,30.4,30.03,WSW,243,0.0,5.0,70,0.00,,---,0.00,VWS V14.00,2013-01-06 17:29:00,
2013-01-06 12:34:00,39.7,30.7,30.03,SSE,157,2.0,4.0,70,0.00,,---,0.00,VWS V14.00,2013-01-06 17:34:00,
2013-01-06 12:39:00,39.8,30.8,30.03,South,183,1.0,6.0,70,0.00,,---,0.00,VWS V14.00,2013-01-06 17:39:00,
2013-01-06 12:44:00,39.8,30.8,30.03,SE,143,2.0,4.0,70,0.00,,---,0.00,VWS V14.00,2013-01-06 17:44:00,
2013-01-06 12:49:00,39.7,30.7,30.03,SW,227,0.0,7.0,70,0.00,,---,0.00,VWS V14.00,2013-01-06 17:49:00,
2013-01-06 12:54:00,39.6,30.6,30.03,SSW,194,0.0,3.0,70,0.00,,---,0.00,VWS V14.00,2013-01-06 17:54:00,
2013-01-06 12:59:00,39.6,30.6,30.02,South,174,0.0,4.0,70,0.00,,---,0.00,VWS V14.00,2013-01-06 17:59:00,
2013-01-06 13:04:00,39.4,30.4,30.02,South,177,4.0,9.0,70,0.00,,---,0.00,VWS V14.00,2013-01-06 18:04:00,
2013-01-06 13:09:00,39.3,30.7,30.02,SE,135,1.0,6.0,71,0.00,,---,0.00,VWS V14.00,2013-01-06 18:09:00,
2013-01-06 13:14:00,39.2,30.6,30.02,SSW,200,1.0,9.0,71,0.00,,---,0.00,VWS V14.00,2013-01-06 18:14:00,
2013-01-06 13:19:00,39.1,30.5,30.02,South,178,2.0,7.0,71,0.00,,---,0.00,VWS V14.00,2013-01-06 18:19:00,
2013-01-06 13:24:00,39.1,30.5,30.02,South,188,0.0,6.0,71,0.00,,---,0.00,VWS V14.00,2013-01-06 18:24:00,
2013-01-06 13:29:00,39.0,30.8,30.02,SW,224,3.0,3.0,72,0.00,,---,0.00,VWS V14.00,2013-01-06 18:29:00,
2013-01-06 13:34:00,39.0,30.8,30.02,South,184,0.0,5.0,72,0.00,,---,0.00,VWS V14.00,2013-01-06 18:34:00,
2013-01-06 13:39:00,38.9,30.7,30.03,South,176,2.0,5.0,72,0.00,,---,0.00,VWS V14.00,2013-01-06 18:39:00,
2013-01-06 13:44:00,39.0,30.8,30.02,SSW,205,0.0,6.0,72,0.00,,---,0.00,VWS V14.00,2013-01-06 18:44:00,
2013-01-06 13:49:00,39.0,30.8,30.02,South,178,2.0,4.0,72,0.00,,---,0.00,VWS V14.00,2013-01-06 18:49:00,
2013-01-06 13:54:00,39.0,30.8,30.02,South,180,0.0,4.0,72,0.00,,---,0.00,VWS V14.00,2013-01-06 18:54:00,
2013-01-06 13:59:00,39.0,30.8,30.02,SSW,199,0.0,4.0,72,0.00,,---,0.00,VWS V14.00,2013-01-06 18:59:00,
2013-01-06 14:04:00,39.1,30.9,30.03,SSE,151,0.0,4.0,72,0.00,,---,0.00,VWS V14.00,2013-01-06 19:04:00,
2013-01-06 14:09:00,39.2,32.3,30.03,SSW,202,0.0,5.0,76,0.00,,---,0.00,VWS V14.00,2013-01-06 19:09:00,
2013-01-06 14:14:00,39.3,31.0,30.03,WNW,283,1.0,3.0,72,0.00,,---,0.00,VWS V14.00,2013-01-06 19:14:00,
2013-01-06 14:19:00,39.4,31.1,30.03,SSE,163,0.0,5.0,72,0.00,,---,0.00,VWS V14.00,2013-01-06 19:19:00,
2013-01-06 14:24:00,39.4,31.1,30.02,South,173,0.0,4.0,72,0.00,,---,0.00,VWS V14.00,2013-01-06 19:24:00,
2013-01-06 14:29:00,39.4,31.1,30.02,South,185,1.0,11.0,72,0.00,,---,0.00,VWS V14.00,2013-01-06 19:29:00,
2013-01-06 14:34:00,39.4,31.1,30.02,SW,231,3.0,11.0,72,0.00,,---,0.00,VWS V14.00,2013-01-06 19:34:00,
2013-01-06 14:39:00,39.4,31.1,30.02,SSW,211,0.0,4.0,72,0.00,,---,0.00,VWS V14.00,2013-01-06 19:39:00,
2013-01-06 14:44:00,39.5,31.2,30.02,South,175,2.0,3.0,72,0.00,,---,0.00,VWS V14.00,2013-01-06 19:44:00,
2013-01-06 14:49:00,39.4,31.1,30.02,ESE,117,0.0,4.0,72,0.00,,---,0.00,VWS V14.00,2013-01-06 19:49:00,
2013-01-06 14:54:00,39.4,31.1,30.02,SSE,149,3.0,3.0,72,0.00,,---,0.00,VWS V14.00,2013-01-06 19:54:00,
2013-01-06 14:59:00,39.3,31.0,30.03,SE,130,0.0,6.0,72,0.00,,---,0.00,VWS V14.00,2013-01-06 19:59:00,
2013-01-06 15:04:00,39.2,31.3,30.03,WSW,244,1.0,5.0,73,0.00,,---,0.00,VWS V14.00,2013-01-06 20:04:00,
2013-01-06 15:09:00,39.2,31.3,30.03,South,187,0.0,3.0,73,0.00,,---,0.00,VWS V14.00,2013-01-06 20:09:00,
2013-01-06 15:11:00,39.2,31.3,30.03,South,187,0.0,2.0,73,0.00,,---,0.00,VWS V14.00,2013-01-06 20:11:00,
2013-01-06 15:13:00,39.1,31.2,30.03,South,178,5.0,6.0,73,0.00,,---,0.00,VWS V14.00,2013-01-06 20:13:00,
2013-01-06 15:18:00,39.1,31.2,30.03,South,188,0.0,5.0,73,0.00,,---,0.00,VWS V14.00,2013-01-06 20:18:00,
2013-01-06 15:23:00,39.0,31.1,30.03,SSW,209,0.0,4.0,73,0.00,,---,0.00,VWS V14.00,2013-01-06 20:23:00,
2013-01-06 15:28:00,38.9,31.0,30.04,South,182,0.0,4.0,73,0.00,,---,0.00,VWS V14.00,2013-01-06 20:28:00,
2013-01-06 15:33:00,38.8,31.2,30.04,SSW,200,0.0,3.0,74,0.00,,---,0.00,VWS V14.00,2013-01-06 20:33:00,
2013-01-06 15:38:00,38.8,31.2,30.04,South,188,3.0,5.0,74,0.00,,---,0.00,VWS V14.00,2013-01-06 20:38:00,
2013-01-06 15:43:00,38.6,31.0,30.04,SSW,192,0.0,6.0,74,0.00,,---,0.00,VWS V14.00,2013-01-06 20:43:00,
2013-01-06 15:48:00,38.6,31.0,30.05,SW,216,0.0,3.0,74,0.00,,---,0.00,VWS V14.00,2013-01-06 20:48:00,
2013-01-06 15:53:00,38.5,31.0,30.05,WSW,240,2.0,4.0,74,0.00,,---,0.00,VWS V14.00,2013-01-06 20:53:00,
2013-01-06 15:58:00,38.4,31.2,30.05,WSW,251,0.0,2.0,75,0.00,,---,0.00,VWS V14.00,2013-01-06 20:58:00,
2013-01-06 16:01:00,38.4,31.2,30.05,South,190,0.0,2.0,75,0.00,,---,0.00,VWS V14.00,2013-01-06 21:01:00,
2013-01-06 16:06:00,38.4,31.2,30.06,South,190,0.0,2.0,75,0.00,,---,0.00,VWS V14.00,2013-01-06 21:06:00,
2013-01-06 16:11:00,38.3,31.1,30.06,WSW,257,0.0,2.0,75,0.00,,---,0.00,VWS V14.00,2013-01-06 21:11:00,
2013-01-06 16:16:00,38.3,31.4,30.06,WNW,284,2.0,2.0,76,0.00,,---,0.00,VWS V14.00,2013-01-06 21:16:00,
2013-01-06 16:21:00,38.2,31.3,30.06,SW,215,0.0,3.0,76,0.00,,---,0.00,VWS V14.00,2013-01-06 21:21:00,
2013-01-06 16:26:00,38.1,31.2,30.06,SW,215,0.0,2.0,76,0.00,,---,0.00,VWS V14.00,2013-01-06 21:26:00,
2013-01-06 16:31:00,38.0,31.1,30.06,WNW,292,0.0,2.0,76,0.00,,---,0.00,VWS V14.00,2013-01-06 21:31:00,
2013-01-06 16:36:00,38.0,31.1,30.06,SW,234,2.0,3.0,76,0.00,,---,0.00,VWS V14.00,2013-01-06 21:36:00,
2013-01-06 16:41:00,37.9,31.4,30.06,WSW,251,1.0,3.0,77,0.00,,---,0.00,VWS V14.00,2013-01-06 21:41:00,
2013-01-06 16:46:00,37.8,31.2,30.06,WSW,251,0.0,2.0,77,0.00,,---,0.00,VWS V14.00,2013-01-06 21:46:00,
2013-01-06 16:51:00,37.8,31.2,30.06,WSW,250,1.0,2.0,77,0.00,,---,0.00,VWS V14.00,2013-01-06 21:51:00,
2013-01-06 16:56:00,37.7,31.1,30.06,WSW,250,0.0,1.0,77,0.00,,---,0.00,VWS V14.00,2013-01-06 21:56:00,
2013-01-06 17:01:00,37.7,31.5,30.07,SSE,165,0.0,0.0,78,0.00,,---,0.00,VWS V14.00,2013-01-06 22:01:00,
2013-01-06 17:06:00,37.6,31.4,30.07,SSE,165,0.0,1.0,78,0.00,,---,0.00,VWS V14.00,2013-01-06 22:06:00,
2013-01-06 17:11:00,37.5,31.3,30.07,SSE,155,0.0,1.0,78,0.00,,---,0.00,VWS V14.00,2013-01-06 22:11:00,
2013-01-06 17:16:00,37.4,31.2,30.07,SSE,155,0.0,1.0,78,0.00,,---,0.00,VWS V14.00,2013-01-06 22:16:00,
2013-01-06 17:21:00,37.4,31.2,30.07,SSE,155,0.0,0.0,78,0.00,,---,0.00,VWS V14.00,2013-01-06 22:21:00,
2013-01-06 17:26:00,37.3,31.4,30.07,SSE,155,0.0,0.0,79,0.00,,---,0.00,VWS V14.00,2013-01-06 22:26:00,
2013-01-06 17:31:00,37.2,31.3,30.08,South,189,0.0,0.0,79,0.00,,---,0.00,VWS V14.00,2013-01-06 22:31:00,
2013-01-06 17:36:00,37.2,31.3,30.08,WNW,298,4.0,4.0,79,0.00,,---,0.00,VWS V14.00,2013-01-06 22:36:00,
2013-01-06 17:41:00,37.1,31.5,30.08,West,265,0.0,0.0,80,0.00,,---,0.00,VWS V14.00,2013-01-06 22:41:00,
2013-01-06 17:46:00,37.1,31.5,30.08,WNW,292,0.0,3.0,80,0.00,,---,0.00,VWS V14.00,2013-01-06 22:46:00,
2013-01-06 17:51:00,37.0,31.4,30.08,WNW,298,0.0,3.0,80,0.00,,---,0.00,VWS V14.00,2013-01-06 22:51:00,
2013-01-06 17:56:00,37.0,31.7,30.08,WNW,298,0.0,1.0,81,0.00,,---,0.00,VWS V14.00,2013-01-06 22:56:00,
2013-01-06 18:01:00,37.0,31.7,30.09,SSW,192,0.0,1.0,81,0.00,,---,0.00,VWS V14.00,2013-01-06 23:01:00,
2013-01-06 18:06:00,36.9,31.6,30.09,SW,226,0.0,2.0,81,0.00,,---,0.00,VWS V14.00,2013-01-06 23:06:00,
2013-01-06 18:11:00,36.9,31.9,30.09,SW,226,0.0,0.0,82,0.00,,---,0.00,VWS V14.00,2013-01-06 23:11:00,
2013-01-06 18:16:00,36.8,31.8,30.09,SW,226,0.0,0.0,82,0.00,,---,0.00,VWS V14.00,2013-01-06 23:16:00,
2013-01-06 18:21:00,36.8,31.8,30.10,SW,226,0.0,0.0,82,0.00,,---,0.00,VWS V14.00,2013-01-06 23:21:00,
2013-01-06 18:26:00,36.7,31.7,30.10,SW,226,0.0,0.0,82,0.00,,---,0.00,VWS V14.00,2013-01-06 23:26:00,
2013-01-06 18:31:00,36.6,31.9,30.10,SW,227,2.0,2.0,83,0.00,,---,0.00,VWS V14.00,2013-01-06 23:31:00,
2013-01-06 18:36:00,36.6,31.9,30.11,SW,227,0.0,1.0,83,0.00,,---,0.00,VWS V14.00,2013-01-06 23:36:00,
2013-01-06 18:41:00,36.5,31.8,30.11,SW,227,0.0,0.0,83,0.00,,---,0.00,VWS V14.00,2013-01-06 23:41:00,
2013-01-06 18:46:00,36.4,31.7,30.11,SW,227,0.0,0.0,83,0.00,,---,0.00,VWS V14.00,2013-01-06 23:46:00,
2013-01-06 18:51:00,36.4,31.7,30.11,SW,229,0.0,1.0,83,0.00,,---,0.00,VWS V14.00,2013-01-06 23:51:00,
2013-01-06 18:56:00,36.3,31.9,30.11,SW,229,0.0,0.0,84,0.00,,---,0.00,VWS V14.00,2013-01-06 23:56:00,
2013-01-06 19:01:00,36.2,31.8,30.12,SW,229,0.0,1.0,84,0.00,,---,0.00,VWS V14.00,2013-01-07 00:01:00,
2013-01-06 19:06:00,36.2,31.8,30.12,West,266,0.0,5.0,84,0.00,,---,0.00,VWS V14.00,2013-01-07 00:06:00,
2013-01-06 19:11:00,36.2,32.1,30.12,SSW,193,2.0,2.0,85,0.00,,---,0.00,VWS V14.00,2013-01-07 00:11:00,
2013-01-06 19:16:00,36.1,32.0,30.12,SW,221,0.0,2.0,85,0.00,,---,0.00,VWS V14.00,2013-01-07 00:16:00,
2013-01-06 19:21:00,36.1,32.0,30.12,West,265,0.0,3.0,85,0.00,,---,0.00,VWS V14.00,2013-01-07 00:21:00,
2013-01-06 19:26:00,36.0,31.9,30.12,WSW,258,0.0,3.0,85,0.00,,---,0.00,VWS V14.00,2013-01-07 00:26:00,
2013-01-06 19:31:00,36.0,32.2,30.12,WSW,243,0.0,2.0,86,0.00,,---,0.00,VWS V14.00,2013-01-07 00:31:00,
2013-01-06 19:36:00,36.0,32.2,30.12,SW,229,2.0,4.0,86,0.00,,---,0.00,VWS V14.00,2013-01-07 00:36:00,
2013-01-06 19:41:00,35.9,32.1,30.13,SW,220,0.0,3.0,86,0.00,,---,0.00,VWS V14.00,2013-01-07 00:41:00,
2013-01-06 19:46:00,35.9,32.1,30.13,West,259,1.0,3.0,86,0.00,,---,0.00,VWS V14.00,2013-01-07 00:46:00,
2013-01-06 19:51:00,35.9,32.4,30.13,WSW,252,1.0,2.0,87,0.00,,---,0.00,VWS V14.00,2013-01-07 00:51:00,
2013-01-06 19:56:00,35.8,32.3,30.13,WNW,300,0.0,5.0,87,0.00,,---,0.00,VWS V14.00,2013-01-07 00:56:00,
2013-01-06 20:01:00,35.8,32.3,30.13,WNW,300,0.0,1.0,87,0.00,,---,0.00,VWS V14.00,2013-01-07 01:01:00,
2013-01-06 20:06:00,35.8,32.3,30.13,West,265,0.0,4.0,87,0.00,,---,0.00,VWS V14.00,2013-01-07 01:06:00,
2013-01-06 20:11:00,35.7,32.2,30.14,West,265,0.0,2.0,87,0.00,,---,0.00,VWS V14.00,2013-01-07 01:11:00,
2013-01-06 20:16:00,35.7,32.2,30.14,West,265,0.0,0.0,87,0.00,,---,0.00,VWS V14.00,2013-01-07 01:16:00,
2013-01-06 20:21:00,35.7,32.5,30.14,West,265,0.0,0.0,88,0.00,,---,0.00,VWS V14.00,2013-01-07 01:21:00,
2013-01-06 20:26:00,35.6,32.1,30.14,West,264,2.0,2.0,87,0.00,,---,0.00,VWS V14.00,2013-01-07 01:26:00,
2013-01-06 20:31:00,35.6,32.4,30.14,West,264,0.0,0.0,88,0.00,,---,0.00,VWS V14.00,2013-01-07 01:31:00,
2013-01-06 20:36:00,35.5,32.3,30.14,West,264,0.0,0.0,88,0.00,,---,0.00,VWS V14.00,2013-01-07 01:36:00,
2013-01-06 20:41:00,35.5,32.3,30.14,West,264,0.0,2.0,88,0.00,,---,0.00,VWS V14.00,2013-01-07 01:41:00,
2013-01-06 20:46:00,35.5,32.3,30.14,West,264,0.0,2.0,88,0.00,,---,0.00,VWS V14.00,2013-01-07 01:46:00,
2013-01-06 20:51:00,35.5,32.3,30.14,West,264,0.0,0.0,88,0.00,,---,0.00,VWS V14.00,2013-01-07 01:51:00,
2013-01-06 20:56:00,35.4,32.2,30.14,West,263,0.0,1.0,88,0.00,,---,0.00,VWS V14.00,2013-01-07 01:56:00,
2013-01-06 21:01:00,35.4,32.2,30.14,WSW,254,0.0,0.0,88,0.00,,---,0.00,VWS V14.00,2013-01-07 02:01:00,
2013-01-06 21:06:00,35.4,32.2,30.15,West,260,0.0,0.0,88,0.00,,---,0.00,VWS V14.00,2013-01-07 02:06:00,
2013-01-06 21:11:00,35.4,32.2,30.15,WNW,292,0.0,1.0,88,0.00,,---,0.00,VWS V14.00,2013-01-07 02:11:00,
2013-01-06 21:16:00,35.3,32.1,30.15,WNW,292,0.0,0.0,88,0.00,,---,0.00,VWS V14.00,2013-01-07 02:16:00,
2013-01-06 21:21:00,35.3,32.4,30.15,WNW,290,0.0,3.0,89,0.00,,---,0.00,VWS V14.00,2013-01-07 02:21:00,
2013-01-06 21:26:00,35.3,32.4,30.16,WNW,288,0.0,1.0,89,0.00,,---,0.00,VWS V14.00,2013-01-07 02:26:00,
2013-01-06 21:31:00,35.3,32.4,30.16,WNW,288,0.0,1.0,89,0.00,,---,0.00,VWS V14.00,2013-01-07 02:31:00,
2013-01-06 21:36:00,35.3,32.4,30.16,WNW,288,0.0,1.0,89,0.00,,---,0.00,VWS V14.00,2013-01-07 02:36:00,
2013-01-06 21:41:00,35.2,32.3,30.16,WNW,288,0.0,0.0,89,0.00,,---,0.00,VWS V14.00,2013-01-07 02:41:00,
2013-01-06 21:46:00,35.2,32.3,30.17,WNW,288,0.0,1.0,89,0.00,,---,0.00,VWS V14.00,2013-01-07 02:46:00,
2013-01-06 21:51:00,35.2,32.3,30.17,WNW,288,0.0,1.0,89,0.00,,---,0.00,VWS V14.00,2013-01-07 02:51:00,
2013-01-06 21:56:00,35.2,32.3,30.17,WNW,288,0.0,1.0,89,0.00,,---,0.00,VWS V14.00,2013-01-07 02:56:00,
2013-01-06 22:01:00,35.2,32.3,30.17,West,272,0.0,2.0,89,0.00,,---,0.00,VWS V14.00,2013-01-07 03:01:00,
2013-01-06 22:06:00,35.2,32.3,30.17,SW,227,0.0,3.0,89,0.00,,---,0.00,VWS V14.00,2013-01-07 03:06:00,
2013-01-06 22:11:00,35.2,32.3,30.18,West,276,0.0,0.0,89,0.00,,---,0.00,VWS V14.00,2013-01-07 03:11:00,
2013-01-06 22:16:00,35.2,32.3,30.18,WNW,300,0.0,4.0,89,0.00,,---,0.00,VWS V14.00,2013-01-07 03:16:00,
2013-01-06 22:21:00,35.2,32.3,30.18,WNW,300,0.0,1.0,89,0.00,,---,0.00,VWS V14.00,2013-01-07 03:21:00,
2013-01-06 22:26:00,35.2,32.3,30.18,WSW,248,3.0,5.0,89,0.00,,---,0.00,VWS V14.00,2013-01-07 03:26:00,
2013-01-06 22:31:00,35.2,32.3,30.18,West,281,0.0,5.0,89,0.00,,---,0.00,VWS V14.00,2013-01-07 03:31:00,
2013-01-06 22:36:00,35.2,32.3,30.19,West,261,0.0,2.0,89,0.00,,---,0.00,VWS V14.00,2013-01-07 03:36:00,
2013-01-06 22:41:00,35.2,32.3,30.20,SSW,197,1.0,4.0,89,0.00,,---,0.00,VWS V14.00,2013-01-07 03:41:00,
2013-01-06 22:46:00,35.1,32.2,30.20,WNW,285,1.0,5.0,89,0.00,,---,0.00,VWS V14.00,2013-01-07 03:46:00,
2013-01-06 22:51:00,35.1,31.9,30.20,SSW,212,0.0,4.0,88,0.00,,---,0.00,VWS V14.00,2013-01-07 03:51:00,
2013-01-06 22:56:00,35.1,31.9,30.20,SW,231,0.0,2.0,88,0.00,,---,0.00,VWS V14.00,2013-01-07 03:56:00,
2013-01-06 23:01:00,35.1,31.9,30.21,West,267,3.0,7.0,88,0.00,,---,0.00,VWS V14.00,2013-01-07 04:01:00,
2013-01-06 23:06:00,35.1,31.9,30.21,WNW,298,0.0,5.0,88,0.00,,---,0.00,VWS V14.00,2013-01-07 04:06:00,
2013-01-06 23:11:00,35.1,31.9,30.21,West,271,0.0,0.0,88,0.00,,---,0.00,VWS V14.00,2013-01-07 04:11:00,
2013-01-06 23:17:00,35.1,31.9,30.21,West,271,0.0,0.0,88,0.00,,---,0.00,VWS V14.00,2013-01-07 04:17:00,
2013-01-06 23:21:00,35.1,31.9,30.22,WNW,302,4.0,5.0,88,0.00,,---,0.00,VWS V14.00,2013-01-07 04:21:00,
2013-01-06 23:26:00,35.0,31.5,30.22,SW,224,2.0,5.0,87,0.00,,---,0.00,VWS V14.00,2013-01-07 04:26:00,
2013-01-06 23:31:00,35.0,31.5,30.22,WNW,282,0.0,3.0,87,0.00,,---,0.00,VWS V14.00,2013-01-07 04:31:00,
2013-01-06 23:36:00,34.9,31.4,30.23,WNW,282,0.0,0.0,87,0.00,,---,0.00,VWS V14.00,2013-01-07 04:36:00,
2013-01-06 23:41:00,34.9,31.4,30.23,WSW,258,0.0,4.0,87,0.00,,---,0.00,VWS V14.00,2013-01-07 04:41:00,
2013-01-06 23:46:00,34.8,31.3,30.23,West,259,0.0,3.0,87,0.00,,---,0.00,VWS V14.00,2013-01-07 04:46:00,
2013-01-06 23:51:00,34.8,31.3,30.23,WNW,296,0.0,2.0,87,0.00,,---,0.00,VWS V14.00,2013-01-07 04:51:00,
2013-01-06 23:56:00,34.7,31.0,30.24,SW,232,1.0,4.0,86,0.00,,---,0.00,VWS V14.00,2013-01-07 04:56:00,